Tracking 19146 objects as of 23-Apr-2018
HD Live streaming from Space Station
objects crossing your sky now

H-1 R/B(1)

Track H-1 R/B(1) now!
10-day predictions


NORAD ID: 20230
Int'l Code: 1989-070B
Perigee: 187.0 km
Apogee: 3,226.2 km
Inclination: 28.2 °
Period: 120.4 minutes
Semi major axis: 8077 km
RCS: 2.9914 m2 (large)
Launch date: September 5, 1989
Source: Japan (JPN)
Launch site: TANEGASHIMA SPACE CENTER (TNSTA)

Note: This is a ROCKET BODY
aabbcc
Your satellite tracking list
Your tracking list is empty




NASA's NSSDC Master Catalog

Two Line Element Set (TLE):
1 20230U 89070B   18112.78266149  .00372874 -19187-5  94260-3 0  9994
2 20230  28.1828 267.8148 1881304 102.7005 278.9315 11.95857352545201
Source of the keplerian elements: AFSPC